This is the latest recevied weather packets stored in our database for station/object KI5MKI. If no packets are shown the sender has not sent any weather packets the latest 10 day(s).
| Time | Temp. | Humidity | Pressure | Rain* | Wind** | Luminosity | Snow |
|---|---|---|---|---|---|---|---|
| 1777918958 | 23.89° C | 46% | 1012.5 hPa | 0 mm | - | 940 W/m² | - |
| 1777918656 | 23.89° C | 51% | 1012.7 hPa | 0 mm | - | 673 W/m² | - |
| 1777918353 | 23.89° C | 47% | 1012.7 hPa | 0 mm | - | 764 W/m² | - |
| 1777918052 | 23.89° C | 47% | 1012.8 hPa | 0 mm | - | 843 W/m² | - |
| 1777917751 | 23.89° C | 48% | 1012.8 hPa | 0 mm | - | 887 W/m² | - |
| 1777917448 | 23.89° C | 47% | 1013.2 hPa | 0 mm | - | 853 W/m² | - |
| 1777917144 | 23.89° C | 48% | 1013.1 hPa | 0 mm | - | 943 W/m² | - |
| 1777916842 | 23.89° C | 49% | 1013.2 hPa | 0 mm | - | 833 W/m² | - |
| 1777916540 | 23.89° C | 52% | 1013.2 hPa | 0 mm | - | 879 W/m² | - |
| 1777916236 | 23.33° C | 49% | 1013.3 hPa | 0 mm | - | 791 W/m² | - |
| 1777915934 | 23.33° C | 50% | 1013.4 hPa | 0 mm | - | 641 W/m² | - |
| 1777915630 | 23.33° C | 52% | 1013.5 hPa | 0 mm | - | 742 W/m² | - |
| 1777915326 | 23.33° C | 52% | 1013.5 hPa | 0 mm | - | 852 W/m² | - |
| 1777915023 | 23.33° C | 50% | 1013.6 hPa | 0 mm | - | 760 W/m² | - |
| 1777914719 | 23.33° C | 49% | 1013.6 hPa | 0 mm | - | 836 W/m² | - |
| 1777914416 | 23.89° C | 48% | 1013.7 hPa | 0 mm | - | 901 W/m² | - |
| 1777914114 | 23.33° C | 48% | 1014 hPa | 0 mm | - | 922 W/m² | - |
| 1777913810 | 22.78° C | 50% | 1014 hPa | 0 mm | - | 832 W/m² | - |
| 1777913507 | 22.78° C | 51% | 1014 hPa | 0 mm | - | 819 W/m² | - |
| 1777913203 | 22.78° C | 52% | 1014 hPa | 0 mm | - | 602 W/m² | - |
| 1777912898 | 22.78° C | 55% | 1014 hPa | 0 mm | - | 710 W/m² | - |
| 1777912596 | 22.78° C | 54% | 1013.9 hPa | 0 mm | - | 681 W/m² | - |
| 1777912292 | 22.22° C | 55% | 1013.6 hPa | 0 mm | - | 705 W/m² | - |
| 1777911988 | 22.78° C | 50% | 1014 hPa | 0 mm | - | 765 W/m² | - |
| 1777911684 | 22.22° C | 55% | 1014 hPa | 0 mm | - | 783 W/m² | - |
* Rain latest hour (hover to see other rain measurements)
** Current wind speed in m/s (hover to see current wind gust speed)